Change the Weather History Date:

Friday, April 29, 2011

  Actual Average Record
Temperature  
Mean Temperature 70 °F 75 °F  
Max Temperature 86 °F 84 °F 99 °F (2014)
Min Temperature 54 °F 66 °F 50 °F (1996)
Degree Days  
Heating Degree Days 0 0  
Month to date heating degree days 1 15  
Since 1 July heating degree days 934 896  
Cooling Degree Days 5 10  
Month to date cooling degree days 344 227  
Year to date cooling degree days 610 418  
Growing Degree Days 20 (Base 50)    
Moisture  
Dew Point 60 °F    
Average Humidity 67    
Maximum Humidity 86    
Minimum Humidity 47    
Precipitation  
Precipitation T in 0.07 in 4.22 in (1904)
Month to date precipitation 0.01 1.76  
Year to date precipitation 4.44 7.12  
Snow  
Snow 0.00 in - - ()
Month to date snowfall 0.0  
Since 1 July snowfall 0.0  
Snow Depth 0.00 in    
Sea Level Pressure  
Sea Level Pressure 29.94 in    
Wind  
Wind Speed 15 mph (SE)    
Max Wind Speed 26 mph    
Max Gust Speed 40 mph    
Visibility 10 miles    
Events      
T = Trace of Precipitation, MM = Missing Value Source: NWS Daily Summary

Daily Weather History Graph

Daily Weather History Graph

Search for Another Location

Airport or City:

Trip Planner

Search our weather history database for the weather conditions in past years. The results will help you decide how hot, cold, wet, or windy it might be!

Date:

Astronomy

Apr. 29, 2011 Rise Set
Actual Time 6:52 AM CDT 8:02 PM CDT
Civil Twilight 6:27 AM CDT 8:27 PM CDT
Nautical Twilight 5:58 AM CDT 8:56 PM CDT
Astronomical Twilight 5:28 AM CDT 9:26 PM CDT
Moon 4:32 AM CDT 5:11 PM CDT
Length of Visible Light 13h 59m
Length of Day
13h 10m
Waning Crescent, 11% of the Moon is Illuminated
Apr 29
Waning Crescent
May 3
New
May 10
First Quarter
May 17
Full
May 24
Last Quarter

Hourly Weather History & Observations

Time (CDT) Temp. Heat Index Dew Point Humidity Pressure Visibility Wind Dir Wind Speed Gust Speed Precip Events Conditions
12:51 AM 57.0 °F - 48.0 °F 72% 30.09 in 10.0 mi Variable 4.6 mph - N/A   Clear
1:51 AM 57.0 °F - 48.9 °F 74% 30.06 in 10.0 mi ESE 6.9 mph - N/A   Clear
2:51 AM 57.0 °F - 50.0 °F 77% 30.03 in 10.0 mi SE 5.8 mph - N/A   Clear
3:51 AM 55.9 °F - 51.1 °F 84% 30.01 in 10.0 mi SE 6.9 mph - N/A   Clear
4:51 AM 57.0 °F - 53.1 °F 87% 30.01 in 10.0 mi ENE 5.8 mph - N/A   Clear
5:51 AM 57.0 °F - 54.0 °F 89% 29.99 in 10.0 mi SE 8.1 mph - N/A   Clear
6:51 AM 59.0 °F - 52.0 °F 78% 30.00 in 10.0 mi SE 5.8 mph - N/A   Clear
7:51 AM 60.1 °F - 54.0 °F 80% 30.03 in 10.0 mi Variable 4.6 mph - N/A   Clear
8:51 AM 69.1 °F - 59.0 °F 70% 30.03 in 10.0 mi Calm Calm - N/A   Clear
9:51 AM 79.0 °F - 60.1 °F 52% 30.04 in 10.0 mi SSE 17.3 mph 25.3 mph N/A   Partly Cloudy
10:51 AM 81.0 °F 81.6 °F 60.1 °F 49% 30.03 in 10.0 mi SE 16.1 mph 24.2 mph N/A   Partly Cloudy
11:51 AM 82.9 °F 83.2 °F 60.1 °F 46% 30.01 in 10.0 mi SE 19.6 mph 28.8 mph N/A   Partly Cloudy
12:51 PM 84.0 °F 84.5 °F 62.1 °F 47% 29.99 in 10.0 mi SE 21.9 mph 32.2 mph N/A   Partly Cloudy
1:51 PM 84.9 °F 85.4 °F 62.1 °F 46% 29.95 in 10.0 mi SE 18.4 mph 28.8 mph N/A   Scattered Clouds
2:51 PM 84.9 °F 85.4 °F 62.1 °F 46% 29.92 in 10.0 mi SE 23.0 mph 31.1 mph N/A   Scattered Clouds
3:51 PM 84.0 °F 84.5 °F 62.1 °F 47% 29.88 in 10.0 mi ESE 23.0 mph 31.1 mph N/A   Partly Cloudy
4:51 PM 82.9 °F 84.0 °F 63.0 °F 51% 29.85 in 10.0 mi SE 20.7 mph 33.4 mph N/A   Partly Cloudy
5:51 PM 81.0 °F 82.2 °F 63.0 °F 54% 29.83 in 10.0 mi ESE 20.7 mph 40.3 mph N/A   Partly Cloudy
6:51 PM 78.1 °F - 64.0 °F 62% 29.83 in 10.0 mi SE 17.3 mph 29.9 mph N/A   Scattered Clouds
7:51 PM 75.9 °F - 64.9 °F 69% 29.81 in 10.0 mi SE 20.7 mph 31.1 mph N/A   Scattered Clouds
8:42 PM 75.2 °F - 66.2 °F 73% 29.82 in 10.0 mi SE 15.0 mph 29.9 mph N/A   Mostly Cloudy
8:51 PM 75.9 °F - 66.9 °F 74% 29.82 in 10.0 mi SE 17.3 mph 26.5 mph N/A   Mostly Cloudy
9:51 PM 75.9 °F - 68.0 °F 76% 29.83 in 10.0 mi SE 16.1 mph 34.5 mph N/A   Overcast
10:51 PM 77.0 °F - 69.1 °F 76% 29.83 in 10.0 mi SSE 19.6 mph 28.8 mph N/A   Overcast
11:51 PM 77.0 °F - 70.0 °F 79% 29.81 in 10.0 mi SSE 20.7 mph 29.9 mph N/A   Overcast